Regional Weather Roundup
Issued by NWS

Home | Current Version | Previous Version | Graphics & Text | Print | Product List | Glossary On
Versions: 1 2 3 4 5 6 7 8 9 10 11 12 13 14 15 16 17 18 19 20 21 22 23 24 25 26 27 28 29 30 31 32 33 34 35 36 37 38 39 40 41 42 43 44 45 46 47 48 49 50
000
ASUS45 KBOI 220810
RWRID
WEATHER ROUNDUP FOR IDAHO
NATIONAL WEATHER SERVICE BOISE ID
200 AM MDT MON SEP 22 2014

NOTE: "FAIR" INDICATES FEW OR NO CLOUDS BELOW 12000 FEET
WITH NO SIGNIFICANT WEATHER AND/OR OBSTRUCTIONS TO VISIBILITY

IDZ012-014-220900-
SOUTHWEST IDAHO


CITY           SKY/WX    TMP DP  RH WIND       PRES   REMARKS
BOISE          CLOUDY    66  53  63 SE8       30.03S
CALDWELL       CLOUDY    64  48  55 S13       30.04R
MOUNTAIN HOME  CLOUDY    60  60 100 S7        30.05R
$$

IDZ016-017-220900-
SOUTHCENTRAL IDAHO


CITY           SKY/WX    TMP DP  RH WIND       PRES   REMARKS
BURLEY         FOG       52  51  97 CALM      30.10S VSB 1/2
JEROME         MOCLDY    55  53  93 NE12      30.09F
TWIN FALLS     PTCLDY    56  49  77 S7        30.09S
$$

IDZ019>023-220900-
SOUTHEAST IDAHO


CITY           SKY/WX    TMP DP  RH WIND       PRES   REMARKS
IDAHO FALLS    PTCLDY    52  52 100 N3        30.17S FOG
POCATELLO      CLEAR     54  54 100 NW3       30.15R
REXBURG        CLOUDY    56  55  97 NE6       30.18S
$$

IDZ006-010-011-018-031-032-220900-
CENTRAL IDAHO MOUNTAINS


CITY           SKY/WX    TMP DP  RH WIND       PRES   REMARKS
MCCALL         MOCLDY    55  45  68 CALM      30.10S
HAILEY         CLOUDY    54  54 100 SE3       30.18S
STANLEY          N/A     54  47  77 SE6       30.19R
SALMON         CLOUDY    64  46  52 SE8       30.03R
CHALLIS        LGT RAIN  58  53  84 E7        30.13R
$$

IDZ002-004-006-007-026-220900-
NORTHERN IDAHO


CITY           SKY/WX    TMP DP  RH WIND       PRES   REMARKS
LEWISTON       PTCLDY    67  40  37 SE3       29.86R
LOWELL           N/A     58  54  86 N3        29.93R
COEUR D`ALENE  MOCLDY    55  45  67 E5        29.91R
MULLAN PASS    PTCLDY    63  37  38 NW6       30.12R
$$



USA.gov is the U.S. government's official web portal to all federal, state and local government web resources and services.